Torna al catalogo

COSMOS 2251 DEB

AttivoLEO
NORAD 34344·DEBRIS·🇷🇺 Russia

Lanciato Jun 16, 1993 da Plesetsk Cosmodrome

Loading…

Prossimi Passaggi (prossime 24 ore)

TLE

AggiornatoSource: Space-Track

Epoca: Sep 14, 2026, 09:57 UTC

1 34344U 93036PS  26257.41476155  .00001763  00000-0  78231-3 0  9995
2 34344  73.9785 337.4893 0149180  99.3691  24.6701 14.17958673900028

Traccia COSMOS 2251 DEB in tempo reale con AllMySat

Download on the App Store